Other Public Products
Issued by NWS Grand Forks, ND

Home | Current Version | Previous Version | Graphics & Text | Print | Product List | Glossary On
Versions: 1 2 3 4 5 6 7 8 9 10 11 12 13 14 15 16 17 18 19 20 21 22 23 24 25 26 27 28 29 30 31 32 33 34 35 36 37 38 39 40 41 42 43 44 45 46 47 48 49 50
000
FPUS83 KFGF 040331
OPUFGF
PRAIRIE TO PINES WEATHER ROUNDUP
NATIONAL WEATHER SERVICE EASTERN NORTH DAKOTA/GRAND FORKS ND
1000 PM CDT THU SEP 03 2015

 **SATELLITE DATA USED TO AUGMENT SKY COVER AT AUTOMATED STATIONS**
 *****  WEATHER ACROSS EASTERN NORTH DAKOTA  *****

CITY           SKY/WX    TMP DP  RH WIND       PRES   REMARKS
GRAND FORKS    MOCLDY    82  72  71 S21G30    29.74R
GRAND FORKS AF MOCLDY    82  73  74 S14       29.75R
GRAND CITY NWS   N/A     81 N/A N/A SE20        N/A
BUXTON         NOT AVBL
DEVILS LAKE    CLOUDY    82  64  54 SE16      29.72R
FARGO          PTCLDY    82  73  74 SE14G24   29.79R
WAHPETON ARPT  CLEAR     79  70  73 SE14G22   29.81S
$$

 *****  WEATHER ACROSS CENTRAL AND WESTERN NORTH DAKOTA  *****

CITY           SKY/WX    TMP DP  RH WIND       PRES   REMARKS
JAMESTOWN      CLOUDY    80  68  66 SE10      29.75R
BISMARCK       CLOUDY    88  47  24 S13       29.69R
MINOT          PTCLDY    76  70  82 NW9       29.71R
MINOT AFB      PTCLDY    76  76  99 N10       29.70R
GARRISON         N/A     73  66  78 N5        29.72R
WILLISTON      MOCLDY    73  53  49 N12       29.78R
DICKINSON      MOCLDY    74  56  53 NE7       29.73S
HETTINGER      PTCLDY    75  52  44 SE9       29.74S
$$

 *****  OTHER OBSERVATIONS NORTHEAST NORTH DAKOTA  *****

CITY           SKY/WX    TMP DP  RH WIND       PRES   REMARKS
WALHALLA       FAIR      82  75  78 MISG      29.71R
LANGDON        FAIR      81  72  74 S18G25    29.75R
CAVALIER       FAIR      82  72  69 S13G23    29.72R
GRAFTON        FAIR      81  73  78 SE13      29.75R
CANDO          FAIR      82  64  54 S13G20    29.71R
FORT TOTTEN      N/A     83  64  51 S12       29.95S
ROLLA          FAIR      79  66  65 SW8       29.71R
RUGBY          FAIR      82  64  54 S7        29.69R
 ***** THE ABOVE OBSERVATIONS ARE NON NWS ARE NOT QUALITY
        CONTROLLED AND MAY MIS-REPORT RAIN FOR SNOW...
$$

 *****  OTHER OBSERVATIONS SOUTHEAST NORTH DAKOTA *****

CITY           SKY/WX    TMP DP  RH WIND       PRES   REMARKS
COOPERSTOWN    NOT AVBL
VALLEY CITY    FAIR      81  77  89 S15G24    29.78S
OAKES            N/A     77  77 100 SE8       29.79R
GWINNER          N/A     79  79 100 SE10      29.80R
SHEYENNE NWR     N/A     78  73  84 SE7       29.95S
BUFFALO        NOT AVBL
WYNDMERE         N/A     79  75  89 SE7         N/A
 ***** THE ABOVE OBSERVATIONS ARE NON NWS ARE NOT QUALITY
       CONTROLLED AND MAY MIS-REPORT RAIN FOR SNOW...
$$

  *****  WEATHER ACROSS NORTHERN MINNESOTA  *****

CITY           SKY/WX    TMP DP  RH WIND       PRES   REMARKS
FLAG ISLAND    CLEAR     73  64  73 S17       29.83R
WARROAD        CLEAR     73  66  78 S13G20    29.83R
ROSEAU         CLEAR     75  66  73 S15G22    29.81R
HALLOCK        PTCLDY    82  72  69 S21       29.74R
THF RVR FALLS  PTCLDY    77  72  83 SE13      29.82R
HALSTAD        NOT AVBL
FOSSTON        CLEAR     73  66  78 SE10      29.85S
BAUDETTE       CLEAR     71  63  75 SE10      29.87R
WASKISH        CLEAR     70  64  83 SE7       29.89R
CROOKSTON      PTCLDY    81  72  74 S15       29.80R
$$
  *****  WEATHER ACROSS CENTRAL AND WEST MINNESOTA  *****

CITY           SKY/WX    TMP DP  RH WIND       PRES   REMARKS
BEMIDJI        CLEAR     71  67  87 SE8       29.90R
PARK RAPIDS    CLEAR     75  67  76 SE12      29.90R
WADENA         CLEAR     72  70  94 E9        29.89R
DETROIT LAKES  CLEAR     75  70  83 SE14      29.87S
MOORHEAD       CLEAR     79  73  83 SE12      29.80S
FERGUS FALLS   CLEAR     79  72  78 SE14      29.82F
ELBOW LAKE     FAIR      76  73  91 SE12G18   29.84F
MORRIS MN      CLEAR     79  75  89 SE13      29.83F
STAPLES        CLEAR     73  66  78 SE6       29.91R
WHEATON        CLEAR     75  72  88 SE12      29.83R
$$
  *****  WEATHER ELSEWHERE ACROSS MINNESOTA  *****

CITY           SKY/WX    TMP DP  RH WIND       PRES   REMARKS
DULUTH         CLEAR     59  52  77 E3        29.99R
INTRNTL FALLS  CLEAR     67  62  84 SE8       29.92R
ELY            CLEAR     61  50  67 SE3       29.99S
CLOQUET        CLEAR     59  52  77 E5        29.98R
BRAINERD       CLEAR     72  67  84 VRB5      29.92R
HIBBING        CLEAR     60  52  74 SE6       29.98R
ALEXANDRIA     CLEAR     75  72  90 SE12      29.90R
SAINT CLOUD    CLEAR     74  70  87 E8        29.90R
MINNEAPOLIS    CLEAR     77  70  79 E13       29.90R
$$

  *****  WEATHER ACROSS SOUTH DAKOTA  *****

CITY           SKY/WX    TMP DP  RH WIND       PRES   REMARKS
SIOUX FALLS    MOCLDY    80  72  76 SE9       29.82R
BROOKINGS      PTCLDY    75  72  88 SE9       29.85S
WATERTOWN      CLEAR     77  71  82 SE7       29.83R
HURON          MOCLDY    78  72  81 SE10      29.76R
SISSETON         N/A     79  74  84 S10       29.80R
ABERDEEN       MOCLDY    78  72  81 SE12      29.77R
MITCHELL       MOCLDY    77  73  87 SE8       29.76S
PIERRE         CLOUDY    81  70  69 SE14      29.70R
MOBRIDGE       MOCLDY    81  71  71 SE13      29.72R
RAPID CITY     MOCLDY    81  51  35 S24G36    29.78R
$$

  *****  SOME WEATHER IN NEARBY STATES *****

CITY           SKY/WX    TMP DP  RH WIND       PRES   REMARKS
GLASGOW MT     PTCLDY    67  36  31 NE18      29.85R
GREAT FALLS MT LGT RAIN  50  48  93 CALM      30.00R
CHEYENNE WY    MOCLDY    60  48  64 W9        30.04S
SCOTTSBLUFF NE CLOUDY    73  55  53 W8        29.93R
OMAHA NE       CLEAR     81  71  71 SE13      29.84R
DES MOINES IA  PTCLDY    79  71  76 S6        29.89R
DAVENPORT IA   PTCLDY    75  71  87 S5        29.93R
CHICAGO IL     MOCLDY    73  66  78 NE7G18    29.94R
EAU CLAIRE WI  CLEAR     71  65  81 E3        29.94R
LA CROSSE WI   PTCLDY    79  69  71 SE6G17    29.92R
$$

  *****  SOME NATIONAL WEATHER *****

CITY           SKY/WX    TMP DP  RH WIND       PRES   REMARKS
LA GUARDIA NY  MOCLDY    83  65  54 S3        29.88S
RALEIGH NC     PTCLDY    71  68  90 CALM      29.93S
ATLANTA GA     MOCLDY    75  66  73 NW5       29.98R
NEW ORLEANS LA PTCLDY    80  74  81 S3        29.94R
OKLAHOMA CITY  MOCLDY    76  64  66 S7        29.91R
ALBUQUERQUE NM MOCLDY    80  44  27 SW18      30.06R
SALT LAKE CITY PTCLDY    83  31  15 S16       29.75R
LOS ANGELES CA PTCLDY    69  56  62 W6        29.83S
BOISE ID       MOCLDY    66  38  35 NW6       29.84S
SEATTLE WA     MOCLDY    60  45  57 SW7       30.00R
$$

*** WEATHER ACROSS MANITOBA...SASKATCHEWAN AND ONTARIO ***
                ***ONTARIO***

CITY           SKY/WX    TMP DP  RH WIND       PRES   REMARKS
GERALDTON      CLEAR     61  59  94 CALM      30.05R
THUNDER BAY    CLEAR     61  57  88 VRB2      30.01S
SIOUX LOOKOUT  PTCLDY    70  57  64 S6        29.95R
TORONTO        MOCLDY    72  64  78 NE3       29.96S
BIG TROUT LK   CLEAR     73  57  56 S8        29.84S
PICKLE LAKE    NOT AVBL
DRYDEN         CLEAR     70  61  73 SE10      29.92S
KENORA         PTCLDY    73  63  68 S15G23    29.86R
$$
                *** MANITOBA***

CITY           SKY/WX    TMP DP  RH WIND       PRES   REMARKS
BRANDON        MOCLDY    75  70  83 N13       29.71R
DAUPHIN        CLOUDY    70  68  94 N8        29.78R
ISLAND LAKE    MOCLDY    68  66  94 SE3       29.75F
PILOT MOUND      N/A     86  63  45 S18G28      N/A
THE PAS        PTCLDY    66  52  59 NW16      29.84R
THOMPSON       PTCLDY    64  55  72 W3        29.75R
WINNIPEG       CLEAR     81  72  74 SE16      29.71R
LYNN LAKE      CLEAR     55  46  71 W8        29.80R
CHURCHILL      LGT RAIN  50  48  93 E18G25    29.74F
$$
                ***SASKATCHEWAN***

CITY           SKY/WX    TMP DP  RH WIND       PRES   REMARKS
ESTEVAN        CLOUDY    72  52  49 N13       29.80R
KINDERSLEY     CLOUDY    52  41  66 E5        29.96
LLOYDMINSTER   MOCLDY    48  39  71 N6        29.99S
PRINCE ALBERT  MOCLDY    54  48  82 NW6       29.94R
REGINA         PTCLDY    59  43  55 N14       29.88R
YORKTON        CLOUDY    66  46  48 NW12      29.86R


USA.gov is the U.S. government's official web portal to all federal, state and local government web resources and services.